Location: Peterborough
(44.3091°N, 78.3197°W)
Time: 05:11:43
(UTC-04:00)

Tiros 1 despin weight - Pass Details

Date: 25 March 2023
Orbit: 586 x 632 km, 48.2° (Epoch: 08 June)

Event Time Altitude Azimuth Distance (km) Brightness Sun altitude
Rises 21:52:05 0° 230° (SW) 2,797 ? -24.7°
Reaches altitude 10° 21:54:23 10° 226° (SW) 1,902 ? -25.0°
Enters shadow 21:55:57 21° 219° (SW) 1,322 ? -25.3°
Maximum altitude 21:58:37 53° 149° (SSE) 722 - -25.7°
Drops below altitude 10° 22:02:55 10° 73° (ENE) 1,925 - -26.3°
Sets 22:05:15 0° 68° (ENE) 2,836 - -26.7°
